Time,TemperatureF,DewpointF,PressureIn,WindDirection,WindDirectionDegrees,WindSpeedMPH,WindSpeedGustMPH,Humidity,HourlyPrecipIn,Conditions,Clouds,dailyrainin,SoftwareType,DateUTC
2013-10-20 00:01:00,62.7,59.4,29.81,WNW,292,2.4,5.3,89,0.00,,,0.00,VWS V13.00,2013-10-20 04:01:00,
2013-10-20 00:02:00,62.7,59.4,29.81,WNW,292,2.4,5.3,89,0.00,,,0.00,VWS V13.00,2013-10-20 04:02:00,
2013-10-20 00:07:00,62.4,59.1,29.82,South,180,6.9,12.0,89,0.00,,,0.00,VWS V13.00,2013-10-20 04:07:00,
2013-10-20 00:12:00,62.4,58.8,29.82,WNW,292,1.7,12.0,88,0.00,,,0.00,VWS V13.00,2013-10-20 04:12:00,
2013-10-20 00:17:00,62.2,58.3,29.83,WSW,248,6.0,12.0,87,0.00,,,0.00,VWS V13.00,2013-10-20 04:17:00,
2013-10-20 00:22:00,62.0,58.1,29.83,West,270,7.3,7.3,87,0.00,,,0.00,VWS V13.00,2013-10-20 04:22:00,
2013-10-20 00:27:00,61.8,57.2,29.82,West,270,2.0,7.3,85,0.00,,,0.00,VWS V13.00,2013-10-20 04:27:00,
2013-10-20 00:32:00,61.7,56.8,29.82,West,270,12.0,12.0,84,0.00,,,0.00,VWS V13.00,2013-10-20 04:32:00,
2013-10-20 00:37:00,61.5,56.0,29.82,WSW,248,14.5,15.8,82,0.00,,,0.00,VWS V13.00,2013-10-20 04:37:00,
2013-10-20 00:42:00,61.3,55.4,29.82,SW,225,4.4,9.8,81,0.00,,,0.00,VWS V13.00,2013-10-20 04:42:00,
2013-10-20 00:47:00,61.3,55.4,29.82,West,270,4.2,9.8,81,0.00,,,0.00,VWS V13.00,2013-10-20 04:47:00,
2013-10-20 00:52:00,61.1,54.9,29.82,SSW,202,4.4,9.8,80,0.00,,,0.00,VWS V13.00,2013-10-20 04:52:00,
2013-10-20 00:57:00,60.9,54.7,29.82,West,270,8.9,9.8,80,0.00,,,0.00,VWS V13.00,2013-10-20 04:57:00,
2013-10-20 01:02:00,60.9,54.3,29.82,West,270,5.1,5.1,79,0.00,,,0.00,VWS V13.00,2013-10-20 05:02:00,
2013-10-20 01:07:00,60.6,54.1,29.82,WNW,292,1.1,5.1,79,0.00,,,0.00,VWS V13.00,2013-10-20 05:07:00,
2013-10-20 01:12:00,60.6,54.1,29.82,SW,225,4.4,5.1,79,0.00,,,0.00,VWS V13.00,2013-10-20 05:12:00,
2013-10-20 01:17:00,60.6,54.1,29.82,SW,225,4.4,5.1,79,0.00,,,0.00,VWS V13.00,2013-10-20 05:17:00,
2013-10-20 01:22:00,60.6,54.1,29.82,SW,225,4.4,4.4,79,0.00,,,0.00,VWS V13.00,2013-10-20 05:22:00,
2013-10-20 01:27:00,60.2,53.3,29.83,SSE,158,6.2,6.2,78,0.00,,,0.00,VWS V13.00,2013-10-20 05:27:00,
2013-10-20 01:32:00,60.0,53.1,29.83,SSE,158,6.2,6.2,78,0.00,,,0.00,VWS V13.00,2013-10-20 05:32:00,
2013-10-20 01:37:00,60.0,52.8,29.83,WSW,248,1.3,6.2,77,0.00,,,0.00,VWS V13.00,2013-10-20 05:37:00,
2013-10-20 01:42:00,60.0,52.8,29.83,WSW,248,1.3,1.3,77,0.00,,,0.00,VWS V13.00,2013-10-20 05:42:00,
2013-10-20 01:47:00,59.7,52.5,29.83,WSW,248,1.3,1.3,77,0.00,,,0.00,VWS V13.00,2013-10-20 05:47:00,
2013-10-20 01:52:00,59.5,52.3,29.83,West,270,4.6,4.6,77,0.00,,,0.00,VWS V13.00,2013-10-20 05:52:00,
2013-10-20 01:57:00,59.5,52.3,29.84,WSW,248,1.7,4.6,77,0.00,,,0.00,VWS V13.00,2013-10-20 05:57:00,
2013-10-20 02:02:00,59.3,52.1,29.84,WNW,292,4.4,4.4,77,0.00,,,0.00,VWS V13.00,2013-10-20 06:02:00,
2013-10-20 02:07:00,59.1,51.9,29.84,South,180,3.3,4.4,77,0.00,,,0.00,VWS V13.00,2013-10-20 06:07:00,
2013-10-20 02:12:00,59.1,51.9,29.84,WNW,292,6.2,6.2,77,0.00,,,0.00,VWS V13.00,2013-10-20 06:12:00,
2013-10-20 02:17:00,59.1,51.5,29.84,West,270,5.3,6.2,76,0.00,,,0.00,VWS V13.00,2013-10-20 06:17:00,
2013-10-20 02:22:00,59.0,51.5,29.84,West,270,14.3,14.3,76,0.00,,,0.00,VWS V13.00,2013-10-20 06:22:00,
2013-10-20 02:27:00,58.8,50.9,29.84,West,270,2.2,14.3,75,0.00,,,0.00,VWS V13.00,2013-10-20 06:27:00,
2013-10-20 02:32:00,58.8,50.9,29.84,WNW,292,4.0,14.3,75,0.00,,,0.00,VWS V13.00,2013-10-20 06:32:00,
2013-10-20 02:37:00,58.6,50.7,29.84,NNW,338,0.0,14.3,75,0.00,,,0.00,VWS V13.00,2013-10-20 06:37:00,
2013-10-20 02:42:00,58.4,50.2,29.84,NW,315,4.0,4.0,74,0.00,,,0.00,VWS V13.00,2013-10-20 06:42:00,
2013-10-20 02:47:00,58.2,50.0,29.84,WNW,292,5.3,5.3,74,0.00,,,0.00,VWS V13.00,2013-10-20 06:47:00,
2013-10-20 02:52:00,58.1,49.9,29.84,NW,315,0.0,5.3,74,0.00,,,0.00,VWS V13.00,2013-10-20 06:52:00,
2013-10-20 02:57:00,58.1,49.5,29.84,NW,315,0.0,5.3,73,0.00,,,0.00,VWS V13.00,2013-10-20 06:57:00,
2013-10-20 03:02:00,57.9,49.3,29.84,WNW,292,4.4,7.3,73,0.00,,,0.00,VWS V13.00,2013-10-20 07:02:00,
2013-10-20 03:07:00,57.7,48.8,29.84,NNW,338,4.2,9.8,72,0.00,,,0.00,VWS V13.00,2013-10-20 07:07:00,
2013-10-20 03:12:00,57.7,48.8,29.84,West,270,7.6,9.8,72,0.00,,,0.00,VWS V13.00,2013-10-20 07:12:00,
2013-10-20 03:17:00,57.5,48.2,29.85,West,270,0.0,9.8,71,0.00,,,0.00,VWS V13.00,2013-10-20 07:17:00,
2013-10-20 03:22:00,57.3,48.4,29.85,West,270,3.3,3.8,72,0.00,,,0.00,VWS V13.00,2013-10-20 07:22:00,
2013-10-20 03:27:00,57.3,48.4,29.85,NNE,22,0.0,3.8,72,0.00,,,0.00,VWS V13.00,2013-10-20 07:27:00,
2013-10-20 03:32:00,57.0,48.1,29.86,West,270,2.2,3.8,72,0.00,,,0.00,VWS V13.00,2013-10-20 07:32:00,
2013-10-20 03:37:00,57.0,48.1,29.85,ESE,112,0.0,3.8,72,0.00,,,0.00,VWS V13.00,2013-10-20 07:37:00,
2013-10-20 03:42:00,56.8,47.9,29.85,NNE,22,2.9,3.3,72,0.00,,,0.00,VWS V13.00,2013-10-20 07:42:00,
2013-10-20 03:47:00,56.8,47.9,29.85,West,270,2.0,3.3,72,0.00,,,0.00,VWS V13.00,2013-10-20 07:47:00,
2013-10-20 03:52:00,56.4,47.5,29.86,WNW,292,0.0,11.6,72,0.00,,,0.00,VWS V13.00,2013-10-20 07:52:00,
2013-10-20 03:57:00,56.4,47.1,29.86,NNE,22,2.2,11.6,71,0.00,,,0.00,VWS V13.00,2013-10-20 07:57:00,
2013-10-20 04:02:00,56.3,47.0,29.86,NW,315,9.1,9.1,71,0.00,,,0.00,VWS V13.00,2013-10-20 08:02:00,
2013-10-20 04:07:00,56.1,46.5,29.86,North,0,6.4,9.1,70,0.00,,,0.00,VWS V13.00,2013-10-20 08:07:00,
2013-10-20 04:12:00,55.9,45.9,29.86,NNW,338,11.8,11.8,69,0.00,,,0.00,VWS V13.00,2013-10-20 08:12:00,
2013-10-20 04:17:00,55.9,45.5,29.86,West,270,3.5,11.8,68,0.00,,,0.00,VWS V13.00,2013-10-20 08:17:00,
2013-10-20 04:22:00,55.5,45.1,29.86,NNW,338,1.3,4.6,68,0.00,,,0.00,VWS V13.00,2013-10-20 08:22:00,
2013-10-20 04:27:00,55.4,44.6,29.87,NW,315,12.7,12.7,67,0.00,,,0.00,VWS V13.00,2013-10-20 08:27:00,
2013-10-20 04:32:00,55.2,44.5,29.88,WNW,292,8.5,12.7,67,0.00,,,0.00,VWS V13.00,2013-10-20 08:32:00,
2013-10-20 04:37:00,55.0,43.9,29.88,North,0,3.5,17.6,66,0.00,,,0.00,VWS V13.00,2013-10-20 08:37:00,
2013-10-20 04:42:00,54.6,43.5,29.89,NNW,338,7.1,7.1,66,0.00,,,0.00,VWS V13.00,2013-10-20 08:42:00,
2013-10-20 04:47:00,54.5,43.8,29.89,NNE,22,2.2,7.1,67,0.00,,,0.00,VWS V13.00,2013-10-20 08:47:00,
2013-10-20 04:52:00,54.3,43.6,29.89,NW,315,5.3,7.1,67,0.00,,,0.00,VWS V13.00,2013-10-20 08:52:00,
2013-10-20 04:57:00,54.1,43.8,29.89,WNW,292,9.6,9.6,68,0.00,,,0.00,VWS V13.00,2013-10-20 08:57:00,
2013-10-20 05:02:00,54.1,43.8,29.89,North,0,4.0,4.0,68,0.00,,,0.00,VWS V13.00,2013-10-20 09:02:00,
2013-10-20 05:07:00,53.9,43.6,29.89,NNW,338,13.4,13.4,68,0.00,,,0.00,VWS V13.00,2013-10-20 09:07:00,
2013-10-20 05:12:00,53.7,43.4,29.89,North,0,4.4,13.4,68,0.00,,,0.00,VWS V13.00,2013-10-20 09:12:00,
2013-10-20 05:18:00,53.6,43.3,29.90,North,0,5.5,13.4,68,0.00,,,0.00,VWS V13.00,2013-10-20 09:18:00,
2013-10-20 05:23:00,53.4,43.1,29.90,West,270,7.3,7.3,68,0.00,,,0.00,VWS V13.00,2013-10-20 09:23:00,
2013-10-20 05:28:00,53.4,43.1,29.90,WNW,292,5.1,7.3,68,0.00,,,0.00,VWS V13.00,2013-10-20 09:28:00,
2013-10-20 05:33:00,53.2,42.9,29.90,North,0,7.3,7.3,68,0.00,,,0.00,VWS V13.00,2013-10-20 09:33:00,
2013-10-20 05:38:00,53.2,42.9,29.90,SSW,202,1.5,7.3,68,0.00,,,0.00,VWS V13.00,2013-10-20 09:38:00,
2013-10-20 05:43:00,52.8,42.5,29.91,WNW,292,5.8,5.8,68,0.00,,,0.00,VWS V13.00,2013-10-20 09:43:00,
2013-10-20 05:48:00,52.8,42.5,29.91,NW,315,2.2,10.7,68,0.00,,,0.00,VWS V13.00,2013-10-20 09:48:00,
2013-10-20 05:53:00,52.8,42.5,29.91,NW,315,7.8,10.7,68,0.00,,,0.00,VWS V13.00,2013-10-20 09:53:00,
2013-10-20 05:58:00,52.8,42.5,29.92,NNW,338,9.1,10.7,68,0.00,,,0.00,VWS V13.00,2013-10-20 09:58:00,
2013-10-20 06:03:00,52.5,42.3,29.92,North,0,2.0,9.1,68,0.00,,,0.00,VWS V13.00,2013-10-20 10:03:00,
2013-10-20 06:08:00,52.5,42.3,29.92,NW,315,7.3,9.1,68,0.00,,,0.00,VWS V13.00,2013-10-20 10:08:00,
2013-10-20 06:13:00,52.3,42.1,29.92,NNE,22,3.8,9.1,68,0.00,,,0.00,VWS V13.00,2013-10-20 10:13:00,
2013-10-20 06:18:00,52.1,41.9,29.93,NW,315,2.9,9.1,68,0.00,,,0.00,VWS V13.00,2013-10-20 10:18:00,
2013-10-20 06:23:00,51.9,42.1,29.93,SW,225,0.0,0.0,69,0.00,,,0.00,VWS V13.00,2013-10-20 10:23:00,
2013-10-20 06:28:00,51.8,42.0,29.93,NNW,338,2.0,2.4,69,0.00,,,0.00,VWS V13.00,2013-10-20 10:28:00,
2013-10-20 06:33:00,51.6,42.2,29.93,WNW,292,0.0,2.4,70,0.00,,,0.00,VWS V13.00,2013-10-20 10:33:00,
2013-10-20 06:38:00,51.4,42.0,29.93,WNW,292,0.0,2.4,70,0.00,,,0.00,VWS V13.00,2013-10-20 10:38:00,
2013-10-20 06:43:00,51.4,42.0,29.93,North,0,0.0,2.2,70,0.00,,,0.00,VWS V13.00,2013-10-20 10:43:00,
2013-10-20 06:48:00,51.2,42.1,29.94,WSW,248,0.0,2.2,71,0.00,,,0.00,VWS V13.00,2013-10-20 10:48:00,
2013-10-20 06:53:00,51.0,41.9,29.94,WNW,292,0.0,2.2,71,0.00,,,0.00,VWS V13.00,2013-10-20 10:53:00,
2013-10-20 06:58:00,51.0,41.9,29.94,NNE,22,4.4,9.1,71,0.00,,,0.00,VWS V13.00,2013-10-20 10:58:00,
2013-10-20 07:03:00,51.0,41.6,29.94,NNW,338,7.8,7.8,70,0.00,,,0.00,VWS V13.00,2013-10-20 11:03:00,
2013-10-20 07:08:00,50.9,41.5,29.94,SE,135,3.5,7.8,70,0.00,,,0.00,VWS V13.00,2013-10-20 11:08:00,
2013-10-20 07:13:00,50.9,41.5,29.94,West,270,0.0,7.8,70,0.00,,,0.00,VWS V13.00,2013-10-20 11:13:00,
2013-10-20 07:18:00,50.7,41.3,29.95,North,0,10.2,10.2,70,0.00,,,0.00,VWS V13.00,2013-10-20 11:18:00,
2013-10-20 07:23:00,50.7,41.3,29.95,NW,315,1.5,4.4,70,0.00,,,0.00,VWS V13.00,2013-10-20 11:23:00,
2013-10-20 07:28:00,50.7,41.7,29.95,WNW,292,1.3,4.4,71,0.00,,,0.00,VWS V13.00,2013-10-20 11:28:00,
2013-10-20 07:33:00,50.7,41.7,29.96,East,90,0.0,4.4,71,0.00,,,0.00,VWS V13.00,2013-10-20 11:33:00,
2013-10-20 07:38:00,50.5,41.5,29.96,WNW,292,4.9,4.9,71,0.00,,,0.00,VWS V13.00,2013-10-20 11:38:00,
2013-10-20 07:43:00,50.5,41.5,29.96,NW,315,4.2,4.2,71,0.00,,,0.00,VWS V13.00,2013-10-20 11:43:00,
2013-10-20 07:48:00,50.5,41.5,29.96,NW,315,7.3,7.3,71,0.00,,,0.00,VWS V13.00,2013-10-20 11:48:00,
2013-10-20 07:53:00,50.5,41.5,29.97,WSW,248,4.4,7.3,71,0.00,,,0.00,VWS V13.00,2013-10-20 11:53:00,
2013-10-20 07:58:00,50.5,41.1,29.97,West,270,1.7,7.3,70,0.00,,,0.00,VWS V13.00,2013-10-20 11:58:00,
2013-10-20 08:03:00,50.5,41.1,29.97,SSE,158,0.0,0.0,70,0.00,,,0.00,VWS V13.00,2013-10-20 12:03:00,
2013-10-20 08:08:00,50.5,41.1,29.97,WNW,292,0.0,1.5,70,0.00,,,0.00,VWS V13.00,2013-10-20 12:08:00,
2013-10-20 08:13:00,50.7,41.3,29.98,WSW,248,3.5,3.5,70,0.00,,,0.00,VWS V13.00,2013-10-20 12:13:00,
2013-10-20 08:19:00,50.7,41.3,29.98,West,270,1.7,3.5,70,0.00,,,0.00,VWS V13.00,2013-10-20 12:19:00,
2013-10-20 08:24:00,50.9,41.1,29.99,SW,225,4.6,8.9,69,0.00,,,0.00,VWS V13.00,2013-10-20 12:24:00,
2013-10-20 08:29:00,50.9,41.1,29.99,WSW,248,5.3,8.9,69,0.00,,,0.00,VWS V13.00,2013-10-20 12:29:00,
2013-10-20 08:34:00,51.0,41.2,29.99,WSW,248,2.9,8.9,69,0.00,,,0.00,VWS V13.00,2013-10-20 12:34:00,
2013-10-20 08:39:00,51.0,41.2,30.00,West,270,0.0,8.9,69,0.00,,,0.00,VWS V13.00,2013-10-20 12:39:00,
2013-10-20 08:44:00,51.4,41.6,29.99,WNW,292,1.5,1.5,69,0.00,,,0.00,VWS V13.00,2013-10-20 12:44:00,
2013-10-20 08:49:00,51.4,41.6,30.00,WNW,292,0.0,7.6,69,0.00,,,0.00,VWS V13.00,2013-10-20 12:49:00,
2013-10-20 08:54:00,51.6,41.8,30.00,NW,315,0.0,7.6,69,0.00,,,0.00,VWS V13.00,2013-10-20 12:54:00,
2013-10-20 08:59:00,54.8,44.8,30.00,WNW,292,0.0,7.6,69,0.00,,,0.00,VWS V13.00,2013-10-20 12:59:00,
2013-10-20 09:04:00,60.4,47.8,30.00,ESE,112,1.5,3.5,63,0.00,,,0.00,VWS V13.00,2013-10-20 13:04:00,
2013-10-20 09:09:00,66.7,50.0,30.00,West,270,4.0,8.2,55,0.00,,,0.00,VWS V13.00,2013-10-20 13:09:00,
2013-10-20 09:14:00,69.9,50.4,30.00,North,0,1.3,8.2,50,0.00,,,0.00,VWS V13.00,2013-10-20 13:14:00,
2013-10-20 09:19:00,72.6,50.1,30.01,WSW,248,5.3,8.2,45,0.00,,,0.00,VWS V13.00,2013-10-20 13:19:00,
2013-10-20 09:24:00,74.1,48.9,30.00,NNW,338,1.5,10.7,41,0.00,,,0.00,VWS V13.00,2013-10-20 13:24:00,
2013-10-20 09:29:00,75.5,48.8,30.01,WNW,292,2.9,10.7,39,0.00,,,0.00,VWS V13.00,2013-10-20 13:29:00,
2013-10-20 09:34:00,76.2,49.5,30.00,NNW,338,4.2,10.7,39,0.00,,,0.00,VWS V13.00,2013-10-20 13:34:00,
2013-10-20 09:39:00,76.6,48.4,30.01,NNW,338,5.3,10.7,37,0.00,,,0.00,VWS V13.00,2013-10-20 13:39:00,
2013-10-20 09:44:00,77.1,46.6,30.01,WNW,292,10.2,10.2,34,0.00,,,0.00,VWS V13.00,2013-10-20 13:44:00,
2013-10-20 09:49:00,76.8,47.8,30.01,WNW,292,6.0,10.2,36,0.00,,,0.00,VWS V13.00,2013-10-20 13:49:00,
2013-10-20 09:54:00,78.0,48.2,30.01,North,0,4.2,10.2,35,0.00,,,0.00,VWS V13.00,2013-10-20 13:54:00,
2013-10-20 09:59:00,77.9,46.5,30.01,North,0,14.7,14.7,33,0.00,,,0.00,VWS V13.00,2013-10-20 13:59:00,
2013-10-20 10:04:00,77.7,47.9,30.02,North,0,7.6,14.7,35,0.00,,,0.00,VWS V13.00,2013-10-20 14:04:00,
2013-10-20 10:09:00,78.0,46.6,30.02,NW,315,3.8,14.7,33,0.00,,,0.00,VWS V13.00,2013-10-20 14:09:00,
2013-10-20 10:14:00,78.6,47.1,30.02,North,0,10.9,14.7,33,0.00,,,0.00,VWS V13.00,2013-10-20 14:14:00,
2013-10-20 10:19:00,78.6,45.5,30.02,NW,315,6.9,14.7,31,0.00,,,0.00,VWS V13.00,2013-10-20 14:19:00,
2013-10-20 10:24:00,78.0,45.8,30.02,NW,315,12.9,12.9,32,0.00,,,0.00,VWS V13.00,2013-10-20 14:24:00,
2013-10-20 10:29:00,78.0,45.8,30.01,NNW,338,1.1,12.9,32,0.00,,,0.00,VWS V13.00,2013-10-20 14:29:00,
2013-10-20 10:34:00,78.0,45.8,30.02,WNW,292,9.6,12.9,32,0.00,,,0.00,VWS V13.00,2013-10-20 14:34:00,
2013-10-20 10:39:00,78.4,46.1,30.02,NNE,22,4.2,12.9,32,0.00,,,0.00,VWS V13.00,2013-10-20 14:39:00,
2013-10-20 10:44:00,79.3,46.1,30.02,NW,315,13.6,13.6,31,0.00,,,0.00,VWS V13.00,2013-10-20 14:44:00,
2013-10-20 10:49:00,79.3,46.1,30.02,NNW,338,3.8,13.6,31,0.00,,,0.00,VWS V13.00,2013-10-20 14:49:00,
2013-10-20 10:54:00,78.6,45.5,30.01,WNW,292,0.0,13.6,31,0.00,,,0.00,VWS V13.00,2013-10-20 14:54:00,
2013-10-20 10:59:00,78.9,45.7,30.02,WSW,248,1.7,13.6,31,0.00,,,0.00,VWS V13.00,2013-10-20 14:59:00,
2013-10-20 11:04:00,78.6,44.6,30.02,NW,315,3.8,3.8,30,0.00,,,0.00,VWS V13.00,2013-10-20 15:04:00,
2013-10-20 11:09:00,73.9,43.0,30.02,WNW,292,5.1,5.1,33,0.00,,,0.00,VWS V13.00,2013-10-20 15:09:00,
2013-10-20 11:14:00,70.7,41.0,30.02,West,270,2.2,5.1,34,0.00,,,0.00,VWS V13.00,2013-10-20 15:14:00,
2013-10-20 11:19:00,68.0,40.1,30.01,West,270,0.0,5.1,36,0.00,,,0.00,VWS V13.00,2013-10-20 15:19:00,
2013-10-20 11:24:00,65.1,39.5,30.01,West,270,9.6,9.6,39,0.00,,,0.00,VWS V13.00,2013-10-20 15:24:00,
2013-10-20 11:30:00,63.6,38.2,30.02,NNW,338,3.5,9.6,39,0.00,,,0.00,VWS V13.00,2013-10-20 15:30:00,
2013-10-20 11:35:00,62.4,37.8,30.02,NW,315,4.9,9.6,40,0.00,,,0.00,VWS V13.00,2013-10-20 15:35:00,
2013-10-20 11:40:00,61.3,38.0,30.02,WNW,292,4.4,11.8,42,0.00,,,0.00,VWS V13.00,2013-10-20 15:40:00,
2013-10-20 11:45:00,60.9,38.3,30.02,North,0,2.2,9.1,43,0.00,,,0.00,VWS V13.00,2013-10-20 15:45:00,
2013-10-20 11:50:00,61.5,39.4,30.02,WSW,248,1.7,9.8,44,0.00,,,0.00,VWS V13.00,2013-10-20 15:50:00,
2013-10-20 11:55:00,64.0,41.7,30.01,South,180,2.4,9.8,44,0.00,,,0.00,VWS V13.00,2013-10-20 15:55:00,
2013-10-20 12:00:00,68.5,43.2,30.01,WNW,292,3.3,3.3,40,0.00,,,0.00,VWS V13.00,2013-10-20 16:00:00,
2013-10-20 12:05:00,70.7,43.2,30.02,West,270,5.5,5.5,37,0.00,,,0.00,VWS V13.00,2013-10-20 16:05:00,
2013-10-20 12:10:00,72.8,45.0,30.02,NW,315,5.1,5.5,37,0.00,,,0.00,VWS V13.00,2013-10-20 16:10:00,
2013-10-20 12:15:00,75.9,44.8,30.01,North,0,9.1,15.6,33,0.00,,,0.00,VWS V13.00,2013-10-20 16:15:00,
2013-10-20 12:20:00,77.0,44.1,30.02,NW,315,6.2,6.2,31,0.00,,,0.00,VWS V13.00,2013-10-20 16:20:00,
2013-10-20 12:25:00,77.3,44.3,30.01,WNW,292,4.6,6.2,31,0.00,,,0.00,VWS V13.00,2013-10-20 16:25:00,
2013-10-20 12:30:00,78.6,44.6,30.01,West,270,5.3,6.2,30,0.00,,,0.00,VWS V13.00,2013-10-20 16:30:00,
2013-10-20 12:35:00,79.3,44.3,30.01,NW,315,2.0,12.3,29,0.00,,,0.00,VWS V13.00,2013-10-20 16:35:00,
2013-10-20 12:36:00,79.3,44.3,30.01,NW,315,2.0,12.3,29,0.00,,,0.00,VWS V13.00,2013-10-20 16:36:00,
2013-10-20 12:41:00,79.1,43.2,30.00,WNW,292,2.4,4.4,28,0.00,,,0.00,VWS V13.00,2013-10-20 16:41:00,
2013-10-20 12:46:00,79.7,43.8,30.00,WSW,248,2.0,4.4,28,0.00,,,0.00,VWS V13.00,2013-10-20 16:46:00,
2013-10-20 12:51:00,79.7,43.8,30.01,West,270,8.2,8.2,28,0.00,,,0.00,VWS V13.00,2013-10-20 16:51:00,
2013-10-20 12:56:00,79.8,43.8,30.00,NNW,338,10.9,10.9,28,0.00,,,0.00,VWS V13.00,2013-10-20 16:56:00,
2013-10-20 13:01:00,79.1,43.2,30.00,North,0,1.1,1.1,28,0.00,,,0.00,VWS V13.00,2013-10-20 17:01:00,
2013-10-20 13:06:00,78.9,43.1,30.00,NW,315,7.6,7.6,28,0.00,,,0.00,VWS V13.00,2013-10-20 17:06:00,
2013-10-20 13:11:00,78.0,42.3,30.00,South,180,4.0,7.6,28,0.00,,,0.00,VWS V13.00,2013-10-20 17:11:00,
2013-10-20 13:16:00,77.7,42.9,30.00,WNW,292,6.0,7.6,29,0.00,,,0.00,VWS V13.00,2013-10-20 17:16:00,
2013-10-20 13:21:00,77.0,41.4,30.00,WSW,248,0.0,0.0,28,0.00,,,0.00,VWS V13.00,2013-10-20 17:21:00,
2013-10-20 13:26:00,76.1,41.6,30.00,West,270,2.0,4.2,29,0.00,,,0.00,VWS V13.00,2013-10-20 17:26:00,
2013-10-20 13:31:00,74.6,40.3,29.99,SSE,158,1.3,6.0,29,0.00,,,0.00,VWS V13.00,2013-10-20 17:31:00,
2013-10-20 13:36:00,74.4,41.0,29.99,WSW,248,11.6,11.6,30,0.00,,,0.00,VWS V13.00,2013-10-20 17:36:00,
2013-10-20 13:41:00,75.7,42.1,29.99,NW,315,3.1,8.0,30,0.00,,,0.00,VWS V13.00,2013-10-20 17:41:00,
2013-10-20 13:46:00,76.2,41.7,29.99,WSW,248,2.0,8.0,29,0.00,,,0.00,VWS V13.00,2013-10-20 17:46:00,
2013-10-20 13:51:00,77.0,42.3,29.99,WSW,248,5.3,8.0,29,0.00,,,0.00,VWS V13.00,2013-10-20 17:51:00,
2013-10-20 13:56:00,77.5,41.9,29.99,West,270,2.0,8.0,28,0.00,,,0.00,VWS V13.00,2013-10-20 17:56:00,
2013-10-20 14:01:00,77.5,41.9,29.99,West,270,8.0,10.0,28,0.00,,,0.00,VWS V13.00,2013-10-20 18:01:00,
2013-10-20 14:06:00,77.1,42.4,29.99,WSW,248,6.2,10.0,29,0.00,,,0.00,VWS V13.00,2013-10-20 18:06:00,
2013-10-20 14:11:00,77.1,42.4,29.99,WSW,248,5.1,10.0,29,0.00,,,0.00,VWS V13.00,2013-10-20 18:11:00,
2013-10-20 14:16:00,76.8,42.2,29.99,West,270,5.1,12.0,29,0.00,,,0.00,VWS V13.00,2013-10-20 18:16:00,
2013-10-20 14:21:00,76.8,42.2,29.99,West,270,2.6,6.2,29,0.00,,,0.00,VWS V13.00,2013-10-20 18:21:00,
2013-10-20 14:26:00,76.8,42.2,29.99,NNW,338,0.0,9.1,29,0.00,,,0.00,VWS V13.00,2013-10-20 18:26:00,
2013-10-20 14:31:00,76.8,42.2,29.99,West,270,8.9,9.1,29,0.00,,,0.00,VWS V13.00,2013-10-20 18:31:00,
2013-10-20 14:36:00,76.2,41.7,29.99,NW,315,0.0,9.1,29,0.00,,,0.00,VWS V13.00,2013-10-20 18:36:00,
2013-10-20 14:41:00,75.0,40.6,29.99,WNW,292,6.9,6.9,29,0.00,,,0.00,VWS V13.00,2013-10-20 18:41:00,
2013-10-20 14:46:00,74.3,40.9,29.99,West,270,4.4,15.6,30,0.00,,,0.00,VWS V13.00,2013-10-20 18:46:00,
2013-10-20 14:51:00,73.4,40.1,29.99,South,180,7.6,15.6,30,0.00,,,0.00,VWS V13.00,2013-10-20 18:51:00,
2013-10-20 14:56:00,73.0,40.6,29.99,SW,225,9.3,15.6,31,0.00,,,0.00,VWS V13.00,2013-10-20 18:56:00,
2013-10-20 15:01:00,72.8,40.4,29.99,South,180,0.0,0.0,31,0.00,,,0.00,VWS V13.00,2013-10-20 19:01:00,
2013-10-20 15:06:00,73.2,40.8,29.99,West,270,4.4,4.4,31,0.00,,,0.00,VWS V13.00,2013-10-20 19:06:00,
2013-10-20 15:11:00,73.0,41.4,29.99,NNW,338,2.0,10.2,32,0.00,,,0.00,VWS V13.00,2013-10-20 19:11:00,
2013-10-20 15:16:00,72.8,40.4,29.99,WNW,292,7.3,12.7,31,0.00,,,0.00,VWS V13.00,2013-10-20 19:16:00,
2013-10-20 15:21:00,72.6,41.1,29.99,West,270,4.6,6.0,32,0.00,,,0.00,VWS V13.00,2013-10-20 19:21:00,
2013-10-20 15:26:00,72.8,41.3,29.99,North,0,0.0,6.0,32,0.00,,,0.00,VWS V13.00,2013-10-20 19:26:00,
2013-10-20 15:31:00,72.8,41.3,29.99,WSW,248,6.0,6.0,32,0.00,,,0.00,VWS V13.00,2013-10-20 19:31:00,
2013-10-20 15:36:00,72.6,41.1,29.99,WSW,248,7.3,7.3,32,0.00,,,0.00,VWS V13.00,2013-10-20 19:36:00,
2013-10-20 15:41:00,72.6,41.1,29.99,South,180,5.3,5.3,32,0.00,,,0.00,VWS V13.00,2013-10-20 19:41:00,
2013-10-20 15:46:00,71.4,38.4,29.99,SW,225,0.0,8.5,30,0.00,,,0.00,VWS V13.00,2013-10-20 19:46:00,
2013-10-20 15:51:00,70.1,38.9,29.99,South,180,7.3,8.5,32,0.00,,,0.00,VWS V13.00,2013-10-20 19:51:00,
2013-10-20 15:56:00,69.6,38.5,29.99,WSW,248,4.4,8.5,32,0.00,,,0.00,VWS V13.00,2013-10-20 19:56:00,
2013-10-20 16:01:00,69.4,39.1,29.99,West,270,5.8,5.8,33,0.00,,,0.00,VWS V13.00,2013-10-20 20:01:00,
2013-10-20 16:06:00,69.6,39.2,29.99,NNW,338,1.7,8.7,33,0.00,,,0.00,VWS V13.00,2013-10-20 20:06:00,
2013-10-20 16:11:00,69.6,39.2,29.99,West,270,3.5,8.7,33,0.00,,,0.00,VWS V13.00,2013-10-20 20:11:00,
2013-10-20 16:16:00,69.6,40.0,29.99,SW,225,7.3,8.7,34,0.00,,,0.00,VWS V13.00,2013-10-20 20:16:00,
2013-10-20 16:21:00,69.6,40.0,30.00,West,270,2.9,2.9,34,0.00,,,0.00,VWS V13.00,2013-10-20 20:21:00,
2013-10-20 16:26:00,69.6,40.0,29.99,West,270,1.5,4.6,34,0.00,,,0.00,VWS V13.00,2013-10-20 20:26:00,
2013-10-20 16:31:00,69.8,39.4,30.00,SW,225,2.9,5.3,33,0.00,,,0.00,VWS V13.00,2013-10-20 20:31:00,
2013-10-20 16:36:00,68.9,38.6,30.00,SSW,202,7.3,7.3,33,0.00,,,0.00,VWS V13.00,2013-10-20 20:36:00,
2013-10-20 16:41:00,68.7,39.2,30.00,West,270,7.8,8.2,34,0.00,,,0.00,VWS V13.00,2013-10-20 20:41:00,
2013-10-20 16:46:00,68.5,39.0,30.00,WNW,292,8.0,8.2,34,0.00,,,0.00,VWS V13.00,2013-10-20 20:46:00,
2013-10-20 16:51:00,68.7,39.2,30.00,ESE,112,4.6,8.2,34,0.00,,,0.00,VWS V13.00,2013-10-20 20:51:00,
2013-10-20 16:56:00,68.3,38.9,30.00,West,270,4.9,10.5,34,0.00,,,0.00,VWS V13.00,2013-10-20 20:56:00,
2013-10-20 17:01:00,67.8,39.2,30.00,WNW,292,2.0,2.0,35,0.00,,,0.00,VWS V13.00,2013-10-20 21:01:00,
2013-10-20 17:06:00,67.8,39.2,30.00,West,270,9.3,9.3,35,0.00,,,0.00,VWS V13.00,2013-10-20 21:06:00,
2013-10-20 17:11:00,67.2,38.7,30.00,West,270,6.7,9.3,35,0.00,,,0.00,VWS V13.00,2013-10-20 21:11:00,
2013-10-20 17:16:00,66.9,39.1,30.00,West,270,11.4,11.4,36,0.00,,,0.00,VWS V13.00,2013-10-20 21:16:00,
2013-10-20 17:21:00,66.3,38.6,30.00,West,270,7.3,7.3,36,0.00,,,0.00,VWS V13.00,2013-10-20 21:21:00,
2013-10-20 17:26:00,66.0,38.3,30.00,SW,225,2.9,7.3,36,0.00,,,0.00,VWS V13.00,2013-10-20 21:26:00,
2013-10-20 17:31:00,65.6,38.7,30.00,West,270,0.0,9.6,37,0.00,,,0.00,VWS V13.00,2013-10-20 21:31:00,
2013-10-20 17:36:00,65.3,38.4,30.01,NW,315,5.1,9.6,37,0.00,,,0.00,VWS V13.00,2013-10-20 21:36:00,
2013-10-20 17:41:00,65.1,38.2,30.01,West,270,3.1,3.1,37,0.00,,,0.00,VWS V13.00,2013-10-20 21:41:00,
2013-10-20 17:46:00,64.9,38.7,30.01,WSW,248,4.6,4.6,38,0.00,,,0.00,VWS V13.00,2013-10-20 21:46:00,
2013-10-20 17:51:00,64.5,39.0,30.02,West,270,0.0,4.6,39,0.00,,,0.00,VWS V13.00,2013-10-20 21:51:00,
2013-10-20 17:56:00,64.2,38.8,30.02,WNW,292,0.0,4.6,39,0.00,,,0.00,VWS V13.00,2013-10-20 21:56:00,
2013-10-20 18:01:00,64.0,38.6,30.02,NW,315,1.1,1.1,39,0.00,,,0.00,VWS V13.00,2013-10-20 22:01:00,
2013-10-20 18:06:00,63.5,38.8,30.02,SW,225,0.0,2.0,40,0.00,,,0.00,VWS V13.00,2013-10-20 22:06:00,
2013-10-20 18:11:00,63.3,39.2,30.02,West,270,0.0,2.0,41,0.00,,,0.00,VWS V13.00,2013-10-20 22:11:00,
2013-10-20 18:16:00,62.9,38.9,30.02,South,180,0.0,2.0,41,0.00,,,0.00,VWS V13.00,2013-10-20 22:16:00,
2013-10-20 18:21:00,62.4,39.0,30.03,SE,135,2.2,2.2,42,0.00,,,0.00,VWS V13.00,2013-10-20 22:21:00,
2013-10-20 18:26:00,62.2,38.8,30.03,WSW,248,0.0,2.2,42,0.00,,,0.00,VWS V13.00,2013-10-20 22:26:00,
2013-10-20 18:31:00,61.8,38.5,30.03,NW,315,2.6,2.6,42,0.00,,,0.00,VWS V13.00,2013-10-20 22:31:00,
2013-10-20 18:36:00,61.5,38.8,30.03,WSW,248,0.0,2.6,43,0.00,,,0.00,VWS V13.00,2013-10-20 22:36:00,
2013-10-20 18:41:00,61.3,39.2,30.03,West,270,0.0,0.0,44,0.00,,,0.00,VWS V13.00,2013-10-20 22:41:00,
2013-10-20 18:46:00,61.1,39.0,30.03,SW,225,0.0,1.3,44,0.00,,,0.00,VWS V13.00,2013-10-20 22:46:00,
2013-10-20 18:51:00,60.9,40.0,30.04,WNW,292,0.0,1.3,46,0.00,,,0.00,VWS V13.00,2013-10-20 22:51:00,
2013-10-20 18:56:00,60.6,39.7,30.04,WSW,248,3.3,3.3,46,0.00,,,0.00,VWS V13.00,2013-10-20 22:56:00,
2013-10-20 19:01:00,60.4,39.5,30.04,WSW,248,4.0,4.0,46,0.00,,,0.00,VWS V13.00,2013-10-20 23:01:00,
2013-10-20 19:06:00,60.2,39.9,30.04,WNW,292,0.0,4.0,47,0.00,,,0.00,VWS V13.00,2013-10-20 23:06:00,
2013-10-20 19:11:00,60.0,39.7,30.04,West,270,3.8,4.0,47,0.00,,,0.00,VWS V13.00,2013-10-20 23:11:00,
2013-10-20 19:16:00,59.9,40.2,30.04,WNW,292,0.0,4.0,48,0.00,,,0.00,VWS V13.00,2013-10-20 23:16:00,
2013-10-20 19:21:00,59.9,40.7,30.05,West,270,4.6,4.6,49,0.00,,,0.00,VWS V13.00,2013-10-20 23:21:00,
2013-10-20 19:26:00,59.7,40.5,30.05,SW,225,2.4,4.6,49,0.00,,,0.00,VWS V13.00,2013-10-20 23:26:00,
2013-10-20 19:31:00,59.5,40.3,30.05,WNW,292,0.0,4.6,49,0.00,,,0.00,VWS V13.00,2013-10-20 23:31:00,
2013-10-20 19:36:00,59.3,40.7,30.05,WSW,248,0.0,4.6,50,0.00,,,0.00,VWS V13.00,2013-10-20 23:36:00,
2013-10-20 19:41:00,59.3,40.7,30.05,SW,225,0.0,0.0,50,0.00,,,0.00,VWS V13.00,2013-10-20 23:41:00,
2013-10-20 19:46:00,59.1,41.0,30.06,WNW,292,0.0,1.3,51,0.00,,,0.00,VWS V13.00,2013-10-20 23:46:00,
2013-10-20 19:51:00,59.1,41.0,30.06,West,270,0.0,3.5,51,0.00,,,0.00,VWS V13.00,2013-10-20 23:51:00,
2013-10-20 19:56:00,58.8,40.7,30.06,WSW,248,0.0,3.5,51,0.00,,,0.00,VWS V13.00,2013-10-20 23:56:00,
2013-10-20 20:02:00,58.8,41.2,30.06,SSW,202,0.0,0.0,52,0.00,,,0.00,VWS V13.00,2013-10-21 00:02:00,
2013-10-20 20:07:00,58.8,41.2,30.06,NNW,338,0.0,4.0,52,0.00,,,0.00,VWS V13.00,2013-10-21 00:07:00,
2013-10-20 20:12:00,58.6,41.0,30.07,SW,225,0.0,4.0,52,0.00,,,0.00,VWS V13.00,2013-10-21 00:12:00,
2013-10-20 20:17:00,58.2,41.2,30.06,West,270,0.0,4.6,53,0.00,,,0.00,VWS V13.00,2013-10-21 00:17:00,
2013-10-20 20:22:00,58.2,41.2,30.07,SSE,158,1.3,2.2,53,0.00,,,0.00,VWS V13.00,2013-10-21 00:22:00,
2013-10-20 20:27:00,58.2,41.2,30.07,WSW,248,0.0,2.2,53,0.00,,,0.00,VWS V13.00,2013-10-21 00:27:00,
2013-10-20 20:32:00,58.1,41.6,30.07,WSW,248,0.0,5.3,54,0.00,,,0.00,VWS V13.00,2013-10-21 00:32:00,
2013-10-20 20:37:00,58.1,41.6,30.07,West,270,0.0,5.3,54,0.00,,,0.00,VWS V13.00,2013-10-21 00:37:00,
2013-10-20 20:42:00,57.9,41.8,30.07,WNW,292,0.0,0.0,55,0.00,,,0.00,VWS V13.00,2013-10-21 00:42:00,
2013-10-20 20:47:00,57.7,42.1,30.07,WSW,248,0.0,0.0,56,0.00,,,0.00,VWS V13.00,2013-10-21 00:47:00,
2013-10-20 20:52:00,57.7,42.1,30.07,NNW,338,0.0,0.0,56,0.00,,,0.00,VWS V13.00,2013-10-21 00:52:00,
2013-10-20 20:57:00,57.3,41.8,30.07,WNW,292,0.0,0.0,56,0.00,,,0.00,VWS V13.00,2013-10-21 00:57:00,
2013-10-20 21:02:00,57.3,41.3,30.08,West,270,0.0,0.0,55,0.00,,,0.00,VWS V13.00,2013-10-21 01:02:00,
2013-10-20 21:07:00,57.0,41.5,30.07,West,270,0.0,0.0,56,0.00,,,0.00,VWS V13.00,2013-10-21 01:07:00,
2013-10-20 21:12:00,57.0,41.5,30.07,SSE,158,0.0,0.0,56,0.00,,,0.00,VWS V13.00,2013-10-21 01:12:00,
2013-10-20 21:17:00,56.8,40.8,30.08,West,270,0.0,0.0,55,0.00,,,0.00,VWS V13.00,2013-10-21 01:17:00,
2013-10-20 21:22:00,56.6,40.6,30.08,West,270,0.0,0.0,55,0.00,,,0.00,VWS V13.00,2013-10-21 01:22:00,
2013-10-20 21:27:00,56.4,40.5,30.09,WSW,248,0.0,0.0,55,0.00,,,0.00,VWS V13.00,2013-10-21 01:27:00,
2013-10-20 21:32:00,56.3,41.3,30.09,West,270,0.0,0.0,57,0.00,,,0.00,VWS V13.00,2013-10-21 01:32:00,
2013-10-20 21:37:00,56.1,41.1,30.09,West,270,0.0,0.0,57,0.00,,,0.00,VWS V13.00,2013-10-21 01:37:00,
2013-10-20 21:42:00,56.1,41.5,30.09,WSW,248,0.0,0.0,58,0.00,,,0.00,VWS V13.00,2013-10-21 01:42:00,
2013-10-20 21:47:00,56.1,41.5,30.09,SSW,202,0.0,0.0,58,0.00,,,0.00,VWS V13.00,2013-10-21 01:47:00,
2013-10-20 21:52:00,55.9,41.8,30.09,WNW,292,0.0,0.0,59,0.00,,,0.00,VWS V13.00,2013-10-21 01:52:00,
2013-10-20 21:57:00,55.9,41.8,30.09,West,270,0.0,0.0,59,0.00,,,0.00,VWS V13.00,2013-10-21 01:57:00,
2013-10-20 22:02:00,55.9,41.8,30.09,SSW,202,0.0,0.0,59,0.00,,,0.00,VWS V13.00,2013-10-21 02:02:00,
2013-10-20 22:07:00,55.9,41.8,30.09,West,270,0.0,0.0,59,0.00,,,0.00,VWS V13.00,2013-10-21 02:07:00,
2013-10-20 22:12:00,55.9,41.8,30.09,WNW,292,0.0,0.0,59,0.00,,,0.00,VWS V13.00,2013-10-21 02:12:00,
2013-10-20 22:17:00,55.9,41.8,30.10,North,0,0.0,0.0,59,0.00,,,0.00,VWS V13.00,2013-10-21 02:17:00,
2013-10-20 22:22:00,55.7,41.6,30.10,WSW,248,0.0,0.0,59,0.00,,,0.00,VWS V13.00,2013-10-21 02:22:00,
2013-10-20 22:27:00,55.5,41.4,30.09,WSW,248,0.0,0.0,59,0.00,,,0.00,VWS V13.00,2013-10-21 02:27:00,
2013-10-20 22:32:00,55.5,41.9,30.09,West,270,0.0,0.0,60,0.00,,,0.00,VWS V13.00,2013-10-21 02:32:00,
2013-10-20 22:37:00,55.5,41.9,30.09,WSW,248,0.0,0.0,60,0.00,,,0.00,VWS V13.00,2013-10-21 02:37:00,
2013-10-20 22:42:00,55.4,41.8,30.09,NW,315,0.0,0.0,60,0.00,,,0.00,VWS V13.00,2013-10-21 02:42:00,
2013-10-20 22:47:00,55.4,42.2,30.09,West,270,0.0,0.0,61,0.00,,,0.00,VWS V13.00,2013-10-21 02:47:00,
2013-10-20 22:52:00,55.2,41.6,30.09,West,270,0.0,0.0,60,0.00,,,0.00,VWS V13.00,2013-10-21 02:52:00,
2013-10-20 22:57:00,55.2,42.0,30.09,West,270,0.0,0.0,61,0.00,,,0.00,VWS V13.00,2013-10-21 02:57:00,
2013-10-20 23:02:00,55.2,42.0,30.10,West,270,0.0,0.0,61,0.00,,,0.00,VWS V13.00,2013-10-21 03:02:00,
2013-10-20 23:07:00,55.0,41.8,30.09,WNW,292,0.0,0.0,61,0.00,,,0.00,VWS V13.00,2013-10-21 03:07:00,
2013-10-20 23:12:00,55.0,41.8,30.09,WNW,292,0.0,0.0,61,0.00,,,0.00,VWS V13.00,2013-10-21 03:12:00,
2013-10-20 23:17:00,54.8,42.0,30.10,West,270,0.0,0.0,62,0.00,,,0.00,VWS V13.00,2013-10-21 03:17:00,
2013-10-20 23:22:00,54.8,42.0,30.10,WNW,292,0.0,0.0,62,0.00,,,0.00,VWS V13.00,2013-10-21 03:22:00,
2013-10-20 23:27:00,54.8,42.0,30.09,West,270,0.0,0.0,62,0.00,,,0.00,VWS V13.00,2013-10-21 03:27:00,
2013-10-20 23:32:00,54.6,41.9,30.09,NNW,338,0.0,0.0,62,0.00,,,0.00,VWS V13.00,2013-10-21 03:32:00,
2013-10-20 23:37:00,54.6,41.9,30.09,WNW,292,0.0,0.0,62,0.00,,,0.00,VWS V13.00,2013-10-21 03:37:00,
2013-10-20 23:42:00,54.6,42.3,30.10,West,270,0.0,0.0,63,0.00,,,0.00,VWS V13.00,2013-10-21 03:42:00,
2013-10-20 23:47:00,54.6,42.3,30.10,NW,315,0.0,0.0,63,0.00,,,0.00,VWS V13.00,2013-10-21 03:47:00,
2013-10-20 23:52:00,54.5,42.2,30.09,West,270,0.0,0.0,63,0.00,,,0.00,VWS V13.00,2013-10-21 03:52:00,
2013-10-20 23:57:00,54.5,42.2,30.10,West,270,0.0,0.0,63,0.00,,,0.00,VWS V13.00,2013-10-21 03:57:00,